Easton, MD

1:40 AM EDT on May 23, 2017 (GMT -0400)
Easton / Newnam

Weather History for KESN - November, 2011

Change the Weather History Date:

Saturday, November 26, 2011

  Actual Average Record
Temperature  
Mean Temperature 48 °F -  
Max Temperature 60 °F 56 °F 73 °F (1973)
Min Temperature 35 °F 35 °F 20 °F (1950)
Degree Days  
Heating Degree Days 18    
Moisture  
Dew Point 42 °F    
Average Humidity 87    
Maximum Humidity 100    
Minimum Humidity 59    
Precipitation  
Precipitation 0.00 in - - ()
Sea Level Pressure  
Sea Level Pressure 30.25 in    
Wind  
Wind Speed 1 mph (South)    
Max Wind Speed 6 mph    
Max Gust Speed -    
Visibility 10 miles    
Events      
Averages and records for this station are not official NWS values.
T = Trace of Precipitation, MM = Missing Value Source: NWS Daily Summary

Daily Weather History Graph

Daily Weather History Graph

Search for Another Location

Airport or City:

Trip Planner

Search our weather history database for the weather conditions in past years. The results will help you decide how hot, cold, wet, or windy it might be!

Date:

Astronomy

Nov. 26, 2011 Rise Set
Actual Time 6:58 AM EST 4:44 PM EST
Civil Twilight 6:29 AM EST 5:13 PM EST
Nautical Twilight 5:56 AM EST 5:46 PM EST
Astronomical Twilight 5:24 AM EST 6:18 PM EST
Moon 8:26 AM EST (11/26) 6:13 PM EST (11/26)
Length of Visible Light 10h 44m
Length of Day
9h 46m
Waxing Crescent, 3% of the Moon is Illuminated
Nov 26
Waxing Crescent
Dec 2
First Quarter
Dec 10
Full
Dec 17
Last Quarter
Dec 24
New

Hourly Weather History & Observations

Time (EST) Temp. Windchill Dew Point Humidity Pressure Visibility Wind Dir Wind Speed Gust Speed Precip Events Conditions
12:36 AM 44.6 °F 42.2 °F 41.0 °F 87% 30.23 in 10.0 mi SSW 4.6 mph - N/A   Clear
12:57 AM 44.6 °F 43.1 °F 42.8 °F 93% 30.22 in 10.0 mi SSW 3.5 mph - N/A   Clear
1:15 AM 44.6 °F 43.1 °F 41.0 °F 87% 30.22 in 10.0 mi SSW 3.5 mph - N/A   Clear
1:36 AM 44.6 °F - 41.0 °F 87% 30.23 in 10.0 mi Calm Calm - N/A   Clear
1:54 AM 46.4 °F - 41.0 °F 81% 30.23 in 10.0 mi Calm Calm - N/A   Clear
2:12 AM 46.4 °F - 41.0 °F 81% 30.24 in 10.0 mi Calm Calm - N/A   Clear
2:33 AM 44.6 °F - 41.0 °F 87% 30.24 in 10.0 mi Calm Calm - N/A   Clear
2:51 AM 42.8 °F - 41.0 °F 93% 30.24 in 10.0 mi Calm Calm - N/A   Clear
3:12 AM 37.4 °F - 37.4 °F 100% 30.24 in 10.0 mi Calm Calm - N/A   Clear
3:30 AM 39.2 °F - 39.2 °F 100% 30.24 in 10.0 mi Calm Calm - N/A   Clear
3:51 AM 39.2 °F - 39.2 °F 100% 30.24 in 10.0 mi Calm Calm - N/A   Clear
4:09 AM 35.6 °F - 35.6 °F 100% 30.24 in 10.0 mi Calm Calm - N/A   Clear
4:30 AM 37.4 °F - 37.4 °F 100% 30.24 in 10.0 mi Calm Calm - N/A   Clear
4:48 AM 37.4 °F - 37.4 °F 100% 30.24 in 10.0 mi Calm Calm - N/A   Clear
5:09 AM 37.4 °F - 37.4 °F 100% 30.24 in 10.0 mi Calm Calm - N/A   Clear
5:12 AM 37.4 °F - 37.4 °F 100% 30.24 in 10.0 mi Calm Calm - N/A   Clear
5:53 AM 37.4 °F - 37.4 °F 100% 30.25 in 10.0 mi Calm Calm - N/A   Clear
6:53 AM 37.4 °F - 37.4 °F 100% 30.27 in 10.0 mi Calm Calm - N/A   Scattered Clouds
7:53 AM 39.2 °F - 39.2 °F 100% 30.29 in 10.0 mi Calm Calm - N/A   Mostly Cloudy
8:50 AM 46.4 °F - 44.6 °F 93% 30.30 in 10.0 mi Calm Calm - N/A   Overcast
9:48 AM 50.0 °F - 46.4 °F 87% 30.30 in 10.0 mi WSW 3.5 mph - N/A   Overcast
10:50 AM 53.6 °F - 46.4 °F 77% 30.29 in 10.0 mi Calm Calm - N/A   Overcast
12:45 PM 60.8 °F - 46.4 °F 59% 30.26 in 10.0 mi SW 5.8 mph - N/A   Overcast
1:50 PM 60.8 °F - 46.4 °F 59% 30.26 in 10.0 mi SSW 5.8 mph - N/A   Overcast
2:50 PM 59.0 °F - 44.6 °F 59% 30.25 in 10.0 mi Calm Calm - N/A   Mostly Cloudy
3:50 PM 57.2 °F - 44.6 °F 63% 30.25 in 10.0 mi Calm Calm - N/A   Mostly Cloudy
4:50 PM 53.6 °F - 41.0 °F 62% 30.26 in 10.0 mi Calm Calm - N/A   Mostly Cloudy
5:50 PM 50.0 °F - 41.0 °F 71% 30.26 in 10.0 mi Calm Calm - N/A   Mostly Cloudy
6:50 PM 50.0 °F - 44.6 °F 82% 30.27 in 10.0 mi Calm Calm - N/A   Mostly Cloudy
7:50 PM 50.0 °F - 44.6 °F 82% 30.25 in 10.0 mi Calm Calm - N/A   Mostly Cloudy
8:50 PM 48.2 °F - 44.6 °F 87% 30.25 in 10.0 mi Calm Calm - N/A   Mostly Cloudy
9:33 PM 46.4 °F - 42.8 °F 87% 30.25 in 10.0 mi Calm Calm - N/A   Clear
9:51 PM 44.6 °F - 42.8 °F 93% 30.25 in 10.0 mi Calm Calm - N/A   Clear
10:09 PM 46.4 °F - 42.8 °F 87% 30.24 in 10.0 mi Calm Calm - N/A   Clear
10:30 PM 46.4 °F - 42.8 °F 87% 30.24 in 10.0 mi Calm Calm - N/A   Clear
10:48 PM 44.6 °F - 42.8 °F 93% 30.24 in 10.0 mi Calm Calm - N/A   Clear
11:09 PM 44.6 °F 43.1 °F 42.8 °F 93% 30.23 in 10.0 mi SE 3.5 mph - N/A   Clear
11:27 PM 44.6 °F 43.1 °F 42.8 °F 93% 30.23 in 10.0 mi SSE 3.5 mph - N/A   Clear
11:48 PM 44.6 °F 43.1 °F 42.8 °F 93% 30.22 in 10.0 mi SE 3.5 mph - N/A   Clear